Terminal Aerodrome Forecast
Issued by NWS Raleigh/Durham, NC

Home | Current Version | Previous Version | Text Only | Print | Product List | Glossary On
Versions: 1 2 3 4 5 6 7 8 9 10 11 12 13 14 15 16 17 18 19 20 21 22 23 24 25 26 27 28 29 30 31 32 33 34 35 36 37 38 39 40 41 42 43 44 45 46 47 48 49 50
000
FTUS42 KRAH 010912 AAC
TAFRDU
TAF AMD
KRDU 010912Z 0109/0206 00000KT 4SM BCFG BR FEW002
      TEMPO 0109/0112 2SM BR BKN002
     FM011300 VRB02KT 5SM BR SCT003
     FM011500 VRB04KT P6SM FEW008 SCT250
     FM011800 VRB03KT P6SM BKN040=

USA.gov is the U.S. government's official web portal to all federal, state and local government web resources and services.